When you browse on this site, cookies collect data to enhance your experience and personalize the content and advertising you see.
Visit our Privacy Policy to learn more. By continuing to use the site, you agree to this use of cookies and data.
  • In Österreich
  • Länderverzeichnis
  • Für 7 Tage
  • Wassertemperatur
  • Satellitenkarten
  • Wetterkarte
  • News
  • Widgets
  • user-avatar
    Anmelden

    Stündliche Wetter Chyzhykove

    Heute, 24 April, Mittwoch

    Zeit Temperatur Niederschläge Wind Luftdruck Luftfeuchtigkeit
    00:00 +11°C° 0 mm 0 m/S 755 mmHg 49%
    01:00 +11°C° 0 mm 0 m/S 755 mmHg 50%
    02:00 +12°C° 0 mm 1 m/S 755 mmHg 45%
    03:00 +11°C° 0 mm 1 m/S 755 mmHg 47%
    04:00 +11°C° 0 mm 1 m/S 756 mmHg 49%
    05:00 +10°C° 0 mm 1 m/S 756 mmHg 50%
    06:00 +12°C° 0 mm 1 m/S 756 mmHg 48%
    07:00 +14°C° 0 mm 1 m/S 756 mmHg 46%
    08:00 +16°C° 0 mm 2 m/S 756 mmHg 44%
    09:00 +18°C° 0 mm 2 m/S 756 mmHg 40%
    10:00 +20°C° 0 mm 1 m/S 756 mmHg 35%
    11:00 +22°C° 0 mm 1 m/S 756 mmHg 31%
    12:00 +22°C° 0 mm 1 m/S 756 mmHg 30%
    13:00 +22°C° 0 mm 1 m/S 756 mmHg 29%
    14:00 +21°C° 0 mm 0 m/S 756 mmHg 28%
    15:00 +21°C° 0 mm 0 m/S 756 mmHg 30%
    16:00 +20°C° 0 mm 0 m/S 755 mmHg 32%
    17:00 +20°C° 0 mm 0 m/S 755 mmHg 33%
    18:00 +19°C° 0 mm 0 m/S 755 mmHg 37%
    19:00 +19°C° 0 mm 1 m/S 755 mmHg 40%
    20:00 +16°C° 0 mm 1 m/S 755 mmHg 43%
    21:00 +16°C° 0 mm 1 m/S 755 mmHg 46%
    22:00 +14°C° 0 mm 0 m/S 755 mmHg 48%
    23:00 +13°C° 0 mm 0 m/S 755 mmHg 51%

    Morgen, 25 April, Donnerstag

    Zeit Temperatur Niederschläge Wind Luftdruck Luftfeuchtigkeit
    00:00 +13°C° 0 mm 0 m/S 756 mmHg 52%
    01:00 +13°C° 0 mm 0 m/S 756 mmHg 54%
    02:00 +12°C° 0 mm 0 m/S 756 mmHg 55%
    03:00 +13°C° 0 mm 1 m/S 756 mmHg 56%
    04:00 +12°C° 0 mm 1 m/S 756 mmHg 57%
    05:00 +12°C° 0 mm 1 m/S 756 mmHg 59%
    06:00 +14°C° 0 mm 1 m/S 756 mmHg 55%
    07:00 +16°C° 0 mm 1 m/S 756 mmHg 51%
    08:00 +18°C° 0 mm 1 m/S 756 mmHg 48%
    09:00 +18°C° 0 mm 0 m/S 756 mmHg 45%
    10:00 +19°C° 0 mm 0 m/S 756 mmHg 42%
    11:00 +21°C° 0 mm 0 m/S 756 mmHg 39%
    12:00 +21°C° 0 mm 0 m/S 755 mmHg 38%
    13:00 +23°C° 0 mm 1 m/S 755 mmHg 37%
    14:00 +23°C° 0 mm 1 m/S 755 mmHg 36%
    15:00 +23°C° 0 mm 1 m/S 754 mmHg 38%
    16:00 +22°C° 0 mm 1 m/S 754 mmHg 40%
    17:00 +22°C° 0 mm 1 m/S 754 mmHg 43%
    18:00 +21°C° 0 mm 1 m/S 754 mmHg 45%
    19:00 +19°C° 0 mm 1 m/S 754 mmHg 48%
    20:00 +18°C° 0 mm 1 m/S 754 mmHg 50%
    21:00 +16°C° 0 mm 1 m/S 753 mmHg 52%
    22:00 +16°C° 0 mm 1 m/S 753 mmHg 53%
    23:00 +15°C° 0 mm 1 m/S 753 mmHg 54%

    übermorgen, 26 April, Freitag

    Zeit Temperatur Niederschläge Wind Luftdruck Luftfeuchtigkeit
    00:00 +15°C° 0 mm 1 m/S 753 mmHg 55%
    01:00 +13°C° 0 mm 0 m/S 753 mmHg 56%
    02:00 +13°C° 0 mm 0 m/S 753 mmHg 57%
    03:00 +13°C° 0 mm 0 m/S 753 mmHg 58%
    04:00 +13°C° 0 mm 0 m/S 753 mmHg 60%
    05:00 +12°C° 0 mm 0 m/S 752 mmHg 61%
    06:00 +14°C° 0 mm 0 m/S 752 mmHg 57%
    07:00 +18°C° 0 mm 1 m/S 752 mmHg 54%
    08:00 +19°C° 0 mm 1 m/S 752 mmHg 50%
    09:00 +20°C° 0 mm 1 m/S 752 mmHg 45%
    10:00 +21°C° 0 mm 2 m/S 752 mmHg 41%
    11:00 +22°C° 0 mm 3 m/S 752 mmHg 36%
    12:00 +21°C° 0 mm 2 m/S 752 mmHg 40%
    13:00 +21°C° 0 mm 2 m/S 752 mmHg 44%
    14:00 +21°C° 0 mm 2 m/S 751 mmHg 48%
    15:00 +21°C° 0 mm 2 m/S 751 mmHg 48%
    16:00 +21°C° 0 mm 2 m/S 750 mmHg 49%
    17:00 +21°C° 0 mm 2 m/S 750 mmHg 49%
    18:00 +19°C° 0 mm 2 m/S 750 mmHg 52%
    19:00 +18°C° 0 mm 2 m/S 750 mmHg 54%
    20:00 +16°C° 0 mm 2 m/S 750 mmHg 57%
    21:00 +16°C° 0 mm 2 m/S 750 mmHg 59%
    22:00 +15°C° 0 mm 2 m/S 749 mmHg 61%
    23:00 +14°C° 0 mm 2 m/S 749 mmHg 63%

    27 April, Samstag

    Zeit Temperatur Niederschläge Wind Luftdruck Luftfeuchtigkeit
    00:00 +14°C° 0 mm 2 m/S 749 mmHg 64%
    01:00 +13°C° 0 mm 2 m/S 749 mmHg 64%
    02:00 +13°C° 0 mm 2 m/S 749 mmHg 65%
    03:00 +12°C° 0 mm 2 m/S 748 mmHg 65%
    04:00 +12°C° 0 mm 2 m/S 748 mmHg 66%
    05:00 +12°C° 0 mm 2 m/S 748 mmHg 66%
    06:00 +12°C° 0 mm 3 m/S 748 mmHg 62%
    07:00 +14°C° 0 mm 4 m/S 748 mmHg 58%
    08:00 +17°C° 0 mm 4 m/S 748 mmHg 54%
    09:00 +17°C° 0 mm 5 m/S 747 mmHg 50%
    10:00 +19°C° 0 mm 6 m/S 747 mmHg 46%
    11:00 +20°C° 0 mm 6 m/S 747 mmHg 42%
    12:00 +21°C° 0 mm 6 m/S 746 mmHg 42%
    13:00 +21°C° 0 mm 6 m/S 746 mmHg 41%
    14:00 +22°C° 0 mm 6 m/S 746 mmHg 41%
    15:00 +21°C° 0 mm 5 m/S 745 mmHg 45%
    16:00 +21°C° 0 mm 4 m/S 745 mmHg 49%
    17:00 +20°C° 0 mm 3 m/S 744 mmHg 54%
    18:00 +19°C° 0 mm 3 m/S 744 mmHg 56%
    19:00 +18°C° 0 mm 3 m/S 744 mmHg 59%
    20:00 +16°C° 0 mm 3 m/S 744 mmHg 62%
    21:00 +15°C° 0 mm 4 m/S 744 mmHg 62%
    22:00 +15°C° 0 mm 4 m/S 743 mmHg 63%
    23:00 +14°C° 0 mm 4 m/S 743 mmHg 63%

    28 April, Sonntag

    Zeit Temperatur Niederschläge Wind Luftdruck Luftfeuchtigkeit
    00:00 +14°C° 0 mm 4 m/S 743 mmHg 64%
    01:00 +14°C° 0 mm 5 m/S 743 mmHg 65%
    02:00 +13°C° 0 mm 5 m/S 743 mmHg 66%
    03:00 +13°C° 0 mm 5 m/S 742 mmHg 67%
    04:00 +13°C° 0 mm 5 m/S 742 mmHg 68%
    05:00 +12°C° 0 mm 5 m/S 742 mmHg 70%
    06:00 +13°C° 0.1 mm 5 m/S 742 mmHg 68%
    07:00 +14°C° 0.1 mm 5 m/S 742 mmHg 67%
    08:00 +15°C° 0.1 mm 5 m/S 742 mmHg 66%
    09:00 +16°C° 0.1 mm 5 m/S 742 mmHg 64%
    10:00 +19°C° 0.1 mm 5 m/S 742 mmHg 61%
    11:00 +20°C° 0.1 mm 6 m/S 742 mmHg 59%
    12:00 +21°C° 0 mm 6 m/S 742 mmHg 56%
    13:00 +22°C° 0 mm 6 m/S 742 mmHg 52%
    14:00 +23°C° 0 mm 6 m/S 742 mmHg 49%
    15:00 +22°C° 0.2 mm 5 m/S 741 mmHg 56%
    16:00 +21°C° 0.2 mm 4 m/S 741 mmHg 63%
    17:00 +20°C° 0.2 mm 2 m/S 741 mmHg 69%
    18:00 +19°C° 0.1 mm 2 m/S 742 mmHg 75%
    19:00 +18°C° 0.1 mm 2 m/S 742 mmHg 81%
    20:00 +17°C° 0.1 mm 2 m/S 742 mmHg 86%
    21:00 +16°C° 0.2 mm 3 m/S 742 mmHg 88%
    22:00 +14°C° 0.2 mm 4 m/S 743 mmHg 90%
    23:00 +13°C° 0.2 mm 6 m/S 743 mmHg 91%

    29 April, Montag

    Zeit Temperatur Niederschläge Wind Luftdruck Luftfeuchtigkeit
    00:00 +11°C° 0.2 mm 6 m/S 743 mmHg 89%
    01:00 +10°C° 0.2 mm 6 m/S 743 mmHg 87%
    02:00 +10°C° 0.2 mm 6 m/S 744 mmHg 85%
    03:00 +9°C° 0 mm 6 m/S 744 mmHg 84%
    04:00 +9°C° 0 mm 6 m/S 744 mmHg 84%
    05:00 +8°C° 0 mm 7 m/S 745 mmHg 83%
    06:00 +8°C° 0 mm 7 m/S 745 mmHg 81%
    07:00 +8°C° 0 mm 7 m/S 746 mmHg 78%
    08:00 +8°C° 0 mm 7 m/S 746 mmHg 76%
    09:00 +8°C° 0.1 mm 7 m/S 746 mmHg 73%
    10:00 +8°C° 0.1 mm 7 m/S 747 mmHg 70%
    11:00 +8°C° 0.1 mm 7 m/S 747 mmHg 68%
    12:00 +9°C° 0 mm 7 m/S 747 mmHg 65%
    13:00 +10°C° 0 mm 6 m/S 748 mmHg 61%
    14:00 +10°C° 0 mm 6 m/S 748 mmHg 58%
    15:00 +10°C° 0 mm 6 m/S 748 mmHg 58%
    16:00 +10°C° 0 mm 6 m/S 748 mmHg 58%
    17:00 +10°C° 0 mm 5 m/S 748 mmHg 58%
    18:00 +9°C° 0 mm 5 m/S 749 mmHg 58%
    19:00 +8°C° 0 mm 5 m/S 749 mmHg 58%
    20:00 +7°C° 0 mm 5 m/S 749 mmHg 58%
    21:00 +7°C° 0 mm 5 m/S 750 mmHg 57%
    22:00 +6°C° 0 mm 5 m/S 750 mmHg 56%
    23:00 +5°C° 0 mm 6 m/S 750 mmHg 55%
    Mehr zeigen